2023/02/19 00:00:00,20.3, 5.5
2023/02/19 00:10:00,20.3, 5.0
2023/02/19 00:20:00,20.0, 4.6
2023/02/19 00:30:00,19.8, 4.9
2023/02/19 00:40:00,19.6, 5.4
2023/02/19 00:50:00,19.6, 6.0
2023/02/19 01:00:00,19.6, 5.3
2023/02/19 01:10:00,19.6, 6.2
2023/02/19 01:20:00,19.5, 6.6
2023/02/19 01:30:00,19.3, 6.8
2023/02/19 01:40:00,19.2, 6.4
2023/02/19 01:50:00,19.1, 6.3
2023/02/19 02:00:00,19.2, 6.2
2023/02/19 02:10:00,19.1, 6.0
2023/02/19 02:20:00,19.0, 6.7
2023/02/19 02:30:00,18.9, 6.1
2023/02/19 02:40:00,18.8, 6.0
2023/02/19 02:50:00,18.7, 5.4
2023/02/19 03:00:00,18.6, 5.8
2023/02/19 03:10:00,18.5, 5.3
2023/02/19 03:20:00,18.7, 6.0
2023/02/19 03:30:00,18.8, 8.1
2023/02/19 03:40:00,18.4, 6.1
2023/02/19 03:50:00,18.4, 5.5
2023/02/19 04:00:00,18.3, 5.7
2023/02/19 04:10:00,18.5, 5.3
2023/02/19 04:20:00,18.6, 5.3
2023/02/19 04:30:00,18.6, 5.6
2023/02/19 04:40:00,18.2, 5.4
2023/02/19 04:50:00,18.1, 4.8
2023/02/19 05:00:00,18.2, 5.0
2023/02/19 05:10:00,18.1, 4.4
2023/02/19 05:20:00,18.0, 4.3
2023/02/19 05:30:00,17.9, 4.2
2023/02/19 05:40:00,18.1, 4.6
2023/02/19 05:50:00,17.9, 4.2
2023/02/19 06:00:00,17.9, 4.8
2023/02/19 06:10:00,17.9, 5.0
2023/02/19 06:20:00,17.5, 5.1
2023/02/19 06:30:00,17.3, 6.1
2023/02/19 06:40:00,17.4, 6.1
2023/02/19 06:50:00,17.3, 6.3
2023/02/19 07:00:00,17.2, 6.0
2023/02/19 07:10:00,16.9, 5.3
2023/02/19 07:20:00,16.9, 6.0
2023/02/19 07:30:00,16.9, 5.4
2023/02/19 07:40:00,16.9, 5.0
2023/02/19 07:50:00,16.9, 5.0
2023/02/19 08:00:00,16.9, 5.0
2023/02/19 08:10:00,16.9, 5.1
2023/02/19 08:20:00,16.8, 6.3
2023/02/19 08:30:00,16.7, 5.7
2023/02/19 08:40:00,16.8, 5.4
2023/02/19 08:50:00,16.5, 6.0
2023/02/19 09:00:00,16.4, 5.8
2023/02/19 09:10:00,16.2, 6.3
2023/02/19 09:20:00,16.1, 6.0
2023/02/19 09:30:00,16.2, 6.2
2023/02/19 09:40:00,16.1, 5.5
2023/02/19 09:50:00,16.1, 4.6
2023/02/19 10:00:00,16.1, 5.7
2023/02/19 10:10:00,16.2, 6.0
2023/02/19 10:20:00,16.2, 5.7
2023/02/19 10:30:00,16.1, 5.2
2023/02/19 10:40:00,16.0, 5.2
2023/02/19 10:50:00,15.6, 6.0
2023/02/19 11:00:00,15.8, 5.0
2023/02/19 11:10:00,15.7, 4.7
2023/02/19 11:20:00,15.6, 4.6
2023/02/19 11:30:00,15.5, 4.6
2023/02/19 11:40:00,15.6, 4.4
2023/02/19 11:50:00,15.6, 4.4
2023/02/19 12:00:00,15.9, 4.7
2023/02/19 12:10:00,15.9, 4.4
2023/02/19 12:20:00,16.0, 4.7
2023/02/19 12:30:00,16.0, 4.6
2023/02/19 12:40:00,15.9, 4.1
2023/02/19 12:50:00,16.0, 4.0
2023/02/19 13:00:00,15.8, 3.7
2023/02/19 13:10:00,15.9, 4.0
2023/02/19 13:20:00,15.8, 4.3
2023/02/19 13:30:00,16.0, 4.9
2023/02/19 13:40:00,15.8, 5.1
2023/02/19 13:50:00,15.8, 4.8
2023/02/19 14:00:00,15.1, 4.4
2023/02/19 14:10:00,15.1, 4.4
2023/02/19 14:20:00,15.2, 4.3
2023/02/19 14:30:00,15.2, 4.5
2023/02/19 14:40:00,15.0, 3.9
2023/02/19 14:50:00,15.0, 4.2
2023/02/19 15:00:00,15.0, 3.9
2023/02/19 15:10:00,14.9, 3.9
2023/02/19 15:20:00,15.0, 3.9
2023/02/19 15:30:00,14.9, 4.2
2023/02/19 15:40:00,15.1, 4.4
2023/02/19 15:50:00,15.0, 4.0
2023/02/19 16:00:00,15.0, 4.0
2023/02/19 16:10:00,14.8, 3.6
2023/02/19 16:20:00,14.7, 3.8
2023/02/19 16:30:00,14.6, 3.9
2023/02/19 16:40:00,14.8, 3.6
2023/02/19 16:50:00,14.8, 3.4
2023/02/19 17:00:00,14.9, 3.5
2023/02/19 17:10:00,14.9, 3.4
2023/02/19 17:20:00,14.9, 3.3
2023/02/19 17:30:00,14.8, 3.6
2023/02/19 17:40:00,14.7, 3.1
2023/02/19 17:50:00,14.7, 2.7
2023/02/19 18:00:00,14.7, 2.0
2023/02/19 18:10:00,14.6, 2.1
2023/02/19 18:20:00,14.6, 1.7
2023/02/19 18:30:00,14.7, 1.4
2023/02/19 18:40:00,14.6, 1.2
2023/02/19 18:50:00,14.6, 1.2
2023/02/19 19:00:00,14.7, 1.1
2023/02/19 19:10:00,14.7, 1.0
2023/02/19 19:20:00,14.6, 0.9
2023/02/19 19:30:00,14.6, 0.5
2023/02/19 19:40:00,14.7, 0.5
2023/02/19 19:50:00,14.6, 0.4
2023/02/19 20:00:00,14.6, 0.6
2023/02/19 20:10:00,14.6, 0.3
2023/02/19 20:20:00,14.6, 0.4
2023/02/19 20:30:00,14.6, 0.5
2023/02/19 20:40:00,14.6, 0.6
2023/02/19 20:50:00,14.6, 0.6
2023/02/19 21:00:00,14.6, 0.6
2023/02/19 21:10:00,14.6, 0.1
2023/02/19 21:20:00,14.6, 0.7
2023/02/19 21:30:00,14.6, 0.4
2023/02/19 21:40:00,14.6, 0.7
2023/02/19 21:50:00,14.6, 0.1
2023/02/19 22:00:00,14.6, 0.4
2023/02/19 22:10:00,14.6, 0.0
2023/02/19 22:20:00,14.5,-0.3
2023/02/19 22:30:00,14.5, 0.4
2023/02/19 22:40:00,14.5, 0.3
2023/02/19 22:50:00,14.6, 0.1
2023/02/19 23:00:00,14.5, 0.0
2023/02/19 23:10:00,14.5, 0.1
2023/02/19 23:20:00,14.5,-0.2
2023/02/19 23:30:00,14.5, 0.2
2023/02/19 23:40:00,14.4, 0.1
2023/02/19 23:50:00,14.5, 0.6
